When you browse on this site, cookies collect data to enhance your experience and personalize the content and advertising you see.
Visit our Privacy Policy to learn more. By continuing to use the site, you agree to this use of cookies and data.
  • In Latvia
  • List of Countries
  • For 7 days
  • Water Temperature
  • Weather Map
  • Weather Widgets
  • user-avatar
    Login

    Hourly Weather Schuchya Gora

    Today, 27 February, Thursday

    Time Temperature Precipitation Wind Pressure Humidity
    00:00 0°C° 0 mm 1 mps 735 mmHg 94%
    01:00 0°C° 0 mm 1 mps 735 mmHg 94%
    02:00 0°C° 0 mm 1 mps 736 mmHg 95%
    03:00 -2°C° 0 mm 2 mps 736 mmHg 95%
    04:00 -2°C° 0 mm 2 mps 735 mmHg 95%
    05:00 -2°C° 0 mm 3 mps 735 mmHg 95%
    06:00 -2°C° 0.5 mm 3 mps 735 mmHg 95%
    07:00 -3°C° 0.5 mm 4 mps 735 mmHg 95%
    08:00 -3°C° 0.5 mm 4 mps 735 mmHg 95%
    09:00 -3°C° 1 mm 4 mps 735 mmHg 95%
    10:00 -3°C° 1 mm 4 mps 735 mmHg 94%
    11:00 -3°C° 1 mm 4 mps 735 mmHg 94%
    12:00 -3°C° 0.7 mm 4 mps 735 mmHg 95%
    13:00 -2°C° 0.7 mm 4 mps 735 mmHg 95%
    14:00 -2°C° 0.7 mm 4 mps 734 mmHg 96%
    15:00 -2°C° 0.6 mm 4 mps 734 mmHg 96%
    16:00 -1°C° 0.6 mm 3 mps 734 mmHg 96%
    17:00 -2°C° 0.6 mm 3 mps 734 mmHg 96%
    18:00 -2°C° 0.8 mm 3 mps 734 mmHg 97%
    19:00 -2°C° 0.8 mm 2 mps 734 mmHg 97%
    20:00 -2°C° 0.8 mm 2 mps 735 mmHg 97%
    21:00 -2°C° 0.7 mm 2 mps 735 mmHg 97%
    22:00 -2°C° 0.7 mm 2 mps 735 mmHg 97%
    23:00 0°C° 0.7 mm 1 mps 735 mmHg 97%

    Tomorrow, 28 February, Friday

    Time Temperature Precipitation Wind Pressure Humidity
    00:00 -1°C° 0.3 mm 1 mps 735 mmHg 97%
    01:00 -1°C° 0.3 mm 1 mps 735 mmHg 97%
    02:00 -1°C° 0.3 mm 1 mps 735 mmHg 97%
    03:00 -2°C° 0.1 mm 1 mps 735 mmHg 97%
    04:00 -2°C° 0.1 mm 1 mps 735 mmHg 97%
    05:00 -2°C° 0.1 mm 1 mps 735 mmHg 97%
    06:00 -2°C° 0.1 mm 1 mps 735 mmHg 97%
    07:00 -2°C° 0.1 mm 1 mps 736 mmHg 96%
    08:00 -1°C° 0.1 mm 1 mps 736 mmHg 96%
    09:00 -2°C° 0.1 mm 0 mps 736 mmHg 94%
    10:00 -1°C° 0.1 mm 0 mps 736 mmHg 92%
    11:00 0°C° 0.1 mm 0 mps 736 mmHg 90%
    12:00 0°C° 0.1 mm 0 mps 737 mmHg 90%
    13:00 +1°C° 0.1 mm 1 mps 737 mmHg 90%
    14:00 +1°C° 0.1 mm 1 mps 737 mmHg 90%
    15:00 +1°C° 0.1 mm 1 mps 737 mmHg 91%
    16:00 +1°C° 0.1 mm 1 mps 738 mmHg 92%
    17:00 -2°C° 0.1 mm 2 mps 738 mmHg 93%
    18:00 -2°C° 0.1 mm 2 mps 738 mmHg 94%
    19:00 -3°C° 0.1 mm 2 mps 739 mmHg 95%
    20:00 -3°C° 0.1 mm 2 mps 739 mmHg 96%
    21:00 -4°C° 0.1 mm 2 mps 739 mmHg 96%
    22:00 -4°C° 0.1 mm 2 mps 740 mmHg 96%
    23:00 -4°C° 0.1 mm 2 mps 740 mmHg 96%

    Day after tomorrow, 29 February, Saturday

    Time Temperature Precipitation Wind Pressure Humidity
    00:00 -4°C° 0.1 mm 2 mps 740 mmHg 95%
    01:00 -5°C° 0.1 mm 2 mps 741 mmHg 95%
    02:00 -5°C° 0.1 mm 2 mps 741 mmHg 94%
    03:00 -5°C° 0 mm 2 mps 741 mmHg 94%
    04:00 -5°C° 0 mm 2 mps 742 mmHg 94%
    05:00 -5°C° 0 mm 2 mps 742 mmHg 94%
    06:00 -6°C° 0 mm 2 mps 742 mmHg 93%
    07:00 -7°C° 0 mm 3 mps 743 mmHg 92%
    08:00 -7°C° 0 mm 3 mps 743 mmHg 91%
    09:00 -6°C° 0 mm 3 mps 744 mmHg 88%
    10:00 -5°C° 0 mm 3 mps 744 mmHg 86%
    11:00 -5°C° 0 mm 3 mps 744 mmHg 83%
    12:00 -4°C° 0 mm 3 mps 745 mmHg 81%
    13:00 -4°C° 0 mm 3 mps 745 mmHg 79%
    14:00 -4°C° 0 mm 3 mps 745 mmHg 77%
    15:00 -3°C° 0 mm 2 mps 746 mmHg 79%
    16:00 -2°C° 0 mm 1 mps 746 mmHg 82%
    17:00 -2°C° 0 mm 1 mps 746 mmHg 85%
    18:00 -3°C° 0 mm 1 mps 746 mmHg 87%
    19:00 -4°C° 0 mm 1 mps 747 mmHg 88%
    20:00 -4°C° 0 mm 1 mps 747 mmHg 90%
    21:00 -6°C° 0 mm 2 mps 747 mmHg 91%
    22:00 -6°C° 0 mm 2 mps 747 mmHg 92%
    23:00 -6°C° 0 mm 2 mps 747 mmHg 92%

    1 March, Sunday

    Time Temperature Precipitation Wind Pressure Humidity
    00:00 -6°C° 0 mm 2 mps 747 mmHg 91%
    01:00 -7°C° 0 mm 3 mps 747 mmHg 89%
    02:00 -6°C° 0 mm 3 mps 747 mmHg 87%
    03:00 -7°C° 0 mm 4 mps 746 mmHg 87%
    04:00 -5°C° 0 mm 4 mps 746 mmHg 87%
    05:00 -5°C° 0 mm 4 mps 745 mmHg 86%
    06:00 -5°C° 0 mm 5 mps 745 mmHg 84%
    07:00 -4°C° 0 mm 5 mps 744 mmHg 82%
    08:00 -4°C° 0 mm 6 mps 744 mmHg 80%
    09:00 -3°C° 0 mm 6 mps 744 mmHg 78%
    10:00 -2°C° 0 mm 6 mps 743 mmHg 76%
    11:00 -1°C° 0 mm 6 mps 743 mmHg 74%
    12:00 -1°C° 0 mm 6 mps 742 mmHg 77%
    13:00 -1°C° 0 mm 6 mps 742 mmHg 80%
    14:00 0°C° 0 mm 7 mps 742 mmHg 84%
    15:00 -1°C° 0.1 mm 6 mps 741 mmHg 82%
    16:00 0°C° 0.1 mm 5 mps 741 mmHg 81%
    17:00 0°C° 0.1 mm 5 mps 741 mmHg 80%
    18:00 0°C° 0.3 mm 5 mps 741 mmHg 86%
    19:00 -2°C° 0.3 mm 6 mps 741 mmHg 91%
    20:00 -2°C° 0.3 mm 6 mps 741 mmHg 96%
    21:00 -2°C° 0.5 mm 6 mps 740 mmHg 96%
    22:00 -1°C° 0.5 mm 5 mps 740 mmHg 96%
    23:00 -1°C° 0.5 mm 5 mps 740 mmHg 96%

    2 March, Monday

    Time Temperature Precipitation Wind Pressure Humidity
    00:00 -1°C° 0 mm 4 mps 740 mmHg 96%
    01:00 -1°C° 0 mm 4 mps 740 mmHg 95%
    02:00 0°C° 0 mm 4 mps 740 mmHg 94%
    03:00 0°C° 0 mm 4 mps 740 mmHg 95%
    04:00 0°C° 0 mm 4 mps 740 mmHg 95%
    05:00 0°C° 0 mm 4 mps 740 mmHg 95%
    06:00 0°C° 0.4 mm 4 mps 740 mmHg 96%
    07:00 0°C° 0.4 mm 4 mps 740 mmHg 97%
    08:00 0°C° 0.4 mm 4 mps 740 mmHg 97%
    09:00 0°C° 0 mm 4 mps 740 mmHg 95%
    10:00 +1°C° 0 mm 4 mps 741 mmHg 94%
    11:00 +1°C° 0 mm 4 mps 741 mmHg 92%
    12:00 +1°C° 0 mm 4 mps 741 mmHg 90%
    13:00 +3°C° 0 mm 4 mps 741 mmHg 89%
    14:00 +3°C° 0 mm 4 mps 741 mmHg 88%
    15:00 +2°C° 0 mm 3 mps 741 mmHg 89%
    16:00 +2°C° 0 mm 3 mps 741 mmHg 90%
    17:00 +2°C° 0 mm 3 mps 741 mmHg 91%
    18:00 +2°C° 0 mm 3 mps 741 mmHg 92%
    19:00 +1°C° 0 mm 3 mps 741 mmHg 93%
    20:00 +1°C° 0 mm 3 mps 742 mmHg 94%
    21:00 +1°C° 0 mm 3 mps 742 mmHg 94%
    22:00 +1°C° 0 mm 3 mps 742 mmHg 94%
    23:00 +2°C° 0 mm 2 mps 742 mmHg 94%

    3 March, Tuesday

    Time Temperature Precipitation Wind Pressure Humidity
    00:00 +2°C° 0.2 mm 2 mps 742 mmHg 95%
    01:00 +2°C° 0.2 mm 2 mps 741 mmHg 96%
    02:00 +2°C° 0.2 mm 2 mps 741 mmHg 97%
    03:00 +2°C° 0.7 mm 2 mps 741 mmHg 97%
    04:00 +2°C° 0.7 mm 2 mps 741 mmHg 97%
    05:00 +3°C° 0.7 mm 2 mps 740 mmHg 97%
    06:00 +3°C° 0.8 mm 2 mps 740 mmHg 97%
    07:00 +3°C° 0.8 mm 2 mps 741 mmHg 97%
    08:00 +3°C° 0.8 mm 2 mps 741 mmHg 97%
    09:00 +3°C° 0.5 mm 2 mps 741 mmHg 97%
    10:00 +3°C° 0.5 mm 2 mps 741 mmHg 98%
    11:00 +3°C° 0.5 mm 2 mps 741 mmHg 98%
    12:00 +3°C° 0.4 mm 2 mps 741 mmHg 98%
    13:00 +4°C° 0.4 mm 1 mps 741 mmHg 99%
    14:00 +4°C° 0.4 mm 1 mps 742 mmHg 99%
    15:00 +3°C° 0.3 mm 1 mps 742 mmHg 98%
    16:00 +3°C° 0.3 mm 1 mps 742 mmHg 98%
    17:00 +2°C° 0.3 mm 2 mps 743 mmHg 98%
    18:00 +2°C° 0.1 mm 2 mps 743 mmHg 97%
    19:00 +2°C° 0.1 mm 2 mps 744 mmHg 96%
    20:00 +1°C° 0.1 mm 2 mps 744 mmHg 95%
    21:00 +1°C° 0 mm 2 mps 745 mmHg 95%
    22:00 +1°C° 0 mm 1 mps 745 mmHg 95%
    23:00 +1°C° 0 mm 1 mps 746 mmHg 94%
    Show more